Weather History for Kaneohe MCBH, HI

Change the Weather History Date:

Friday, September 27, 2013

  Actual Average Record
Temperature  
Mean Temperature 80 °F -  
Max Temperature 84 °F 81 °F 86 °F (2003)
Min Temperature 77 °F 71 °F 69 °F (1996)
Cooling Degree Days 16    
Growing Degree Days 30 (Base 50)    
Moisture  
Dew Point 68 °F    
Average Humidity 68    
Maximum Humidity 74    
Minimum Humidity 58    
Precipitation  
Precipitation 0.00 in - - ()
Sea Level Pressure  
Sea Level Pressure 30.04 in    
Wind  
Wind Speed 8 mph (East)    
Max Wind Speed 13 mph    
Max Gust Speed 22 mph    
Visibility 8 miles    
Events      
Averages and records for this station are not official NWS values.
T = Trace of Precipitation, MM = Missing Value Source: NWS Daily Summary

Daily Weather History Graph

Daily Weather History Graph

Search for Another Location

Airport:

Trip Planner

Search our weather history database for the weather conditions in past years. The results will help you decide how hot, cold, wet, or windy it might be!

Date:

Astronomy

Sep. 27, 2013 Rise Set
Actual Time 6:21 AM HST 6:22 PM HST
Civil Twilight 5:59 AM HST 6:44 PM HST
Nautical Twilight 5:33 AM HST 7:10 PM HST
Astronomical Twilight 5:07 AM HST 7:35 PM HST
Moon 12:06 AM HST (9/27) 1:30 PM HST (9/27)
Length of Visible Light 12h 45m
Length of Day
12h 00m
Last Quarter, 43% of the Moon is Illuminated
Sep 27
Last Quarter
Oct 4
New
Oct 11
First Quarter
Oct 18
Full
Oct 26
Last Quarter

Hourly Weather History & Observations

Time (HST) Temp. Heat Index Dew Point Humidity Pressure Visibility Wind Dir Wind Speed Gust Speed Precip Events Conditions
12:57 AM 77.7 °F - 66.9 °F 69% 29.98 in 7.0 mi East 6.9 mph - N/A   Scattered Clouds
1:57 AM 78.3 °F - 66.9 °F 68% 29.97 in 7.0 mi East 5.8 mph - N/A   Scattered Clouds
2:57 AM 78.3 °F - 66.0 °F 66% 29.97 in 7.0 mi East 4.6 mph - N/A   Scattered Clouds
3:57 AM 78.3 °F - 66.9 °F 68% 29.96 in 7.0 mi East 8.1 mph - N/A   Mostly Cloudy
4:57 AM 77.5 °F - 66.0 °F 68% 29.97 in 7.0 mi Variable 5.8 mph - N/A   Scattered Clouds
5:57 AM 77.5 °F - 66.0 °F 68% 30.00 in 7.0 mi East 5.8 mph - N/A   Scattered Clouds
6:57 AM 77.0 °F - 66.9 °F 71% 30.01 in 10.0 mi East 9.2 mph - N/A   Mostly Cloudy
7:27 AM 77.0 °F - 68.0 °F 74% 30.03 in 6.2 mi East 5.8 mph 18.4 mph N/A   Scattered Clouds
7:57 AM 77.0 °F - 68.0 °F 74% 30.03 in 10.0 mi East 9.2 mph - N/A   Mostly Cloudy
8:57 AM 81.3 °F 84.5 °F 69.1 °F 66% 30.04 in 7.0 mi East 11.5 mph 21.9 mph N/A   Mostly Cloudy
9:57 AM 84.2 °F 87.3 °F 68.0 °F 58% 30.06 in 7.0 mi East 10.4 mph 19.6 mph N/A   Partly Cloudy
10:57 AM 84.2 °F 87.9 °F 69.1 °F 60% 30.05 in 7.0 mi ESE 9.2 mph 17.3 mph N/A   Partly Cloudy
11:57 AM 84.2 °F 87.3 °F 68.0 °F 58% 30.04 in 7.0 mi ENE 8.1 mph - N/A   Mostly Cloudy
12:57 PM 84.2 °F 87.3 °F 68.0 °F 58% 30.03 in 7.0 mi ENE 9.2 mph 19.6 mph N/A   Scattered Clouds
1:57 PM 82.4 °F 85.4 °F 68.0 °F 62% 30.01 in 10.0 mi East 8.1 mph - N/A   Scattered Clouds
2:57 PM 82.4 °F 85.4 °F 68.0 °F 62% 30.00 in 7.0 mi ENE 8.1 mph 20.7 mph N/A   Scattered Clouds
3:57 PM 82.4 °F 84.8 °F 66.9 °F 59% 30.00 in 7.0 mi East 11.5 mph 20.7 mph N/A   Scattered Clouds
4:57 PM 80.6 °F 83.2 °F 68.0 °F 65% 30.01 in 7.0 mi East 9.2 mph 20.7 mph N/A   Partly Cloudy
5:57 PM 78.8 °F - 66.9 °F 67% 30.03 in 7.0 mi ENE 10.4 mph 16.1 mph N/A   Clear
6:57 PM 78.8 °F - 66.0 °F 65% 30.04 in 7.0 mi ENE 11.5 mph 20.7 mph N/A   Partly Cloudy
7:57 PM 78.8 °F - 66.9 °F 67% 30.06 in 7.0 mi East 8.1 mph 17.3 mph N/A   Mostly Cloudy
8:41 PM 77.0 °F - 68.0 °F 74% 30.09 in 6.2 mi ENE 8.1 mph - N/A   Overcast
8:57 PM 77.0 °F - 68.0 °F 74% 30.08 in 10.0 mi East 11.5 mph 17.3 mph N/A   Mostly Cloudy
9:18 PM 77.0 °F - 68.0 °F 74% 30.09 in 6.2 mi East 10.4 mph 17.3 mph N/A   Scattered Clouds
9:57 PM 77.0 °F - 68.0 °F 74% 30.09 in 10.0 mi East 10.4 mph - N/A   Mostly Cloudy
10:17 PM - - - N/A% 30.10 in - East 8.1 mph 16.1 mph N/A   Mostly Cloudy
10:57 PM 77.0 °F - 68.0 °F 74% 30.09 in 10.0 mi ENE 11.5 mph 18.4 mph N/A   Scattered Clouds
11:38 PM 77.0 °F - 68.0 °F 74% 30.10 in 6.2 mi East 9.2 mph 18.4 mph N/A   Mostly Cloudy
11:57 PM 77.0 °F - 68.0 °F 74% 30.09 in 10.0 mi East 12.7 mph 20.7 mph N/A   Mostly Cloudy